CAPE
0 0 0 0 0 0 0 0 0 0 0 0 0 0 0 0 0 0 0 0 0 0 0 0 0 0 0 0 0 0 0 0 0 0 0 0 0 0 0 0 0 0 0 0
0 0 0 0 0 0 0 0 0 0 0 0 0 0 0 0 0 0 0 0 0 0 0 0 0 0 0 0 0 0 0 0 0 0 0 0 0 0 0 0 0 0 0 0
0 0 0 0 0 0 0 0 0 0 0 0 0 0 0 0 0 0 0 0 0 0 0 0 0 0 0 0 0 0 0 0 0 0 0 0 0 0 0 0 0 0 0 0
0 0 0 0 0 0 0 0 0 0 0 0 0 0 0 0 0 0 0 0 0 0 0 0 0 0 0 0 0 0 0 0 0 0 0 0 0 0 0 0 0 0 0 0
0 0 0 0 0 0 0 0 0 0 0 0 0 0 0 0 0 0 0 0 0 0 0 0 0 0 0 0 0 0 0 0 0 0 0 0 0 0 0 0 0 0 0 0
0 0 0 0 0 0 0 0 0 0 0 0 0 0 0 0 0 0 0 0 0 0 0 0 0 0 0 0 0 0 0 0 0 0 0 0 0 0 0 0 0 0 0 0
0 0 0 0 0 0 0 0 0 0 0 0 0 0 0 0 0 0 0 0 0 0 0 0 0 0 0 0 0 0 0 0 0 0 0 0 0 0 0 0 0 0 0 0
0 0 0 0 0 0 0 0 0 0 0 0 0 0 0 0 0 0 0 0 0 0 0 0 0 0 0 0 0 0 0 0 0 0 0 0 0 0 0 0 0 0 0 0
0 0 0 0 0 0 0 0 0 0 0 0 0 0 0 0 0 0 0 0 0 0 0 0 0 0 0 0 0 0 0 0 0 0 0 0 0 0 0 0 0 0 0 0
0 0 0 0 0 0 0 0 0 0 0 0 0 0 0 0 0 0 0 0 0 0 0 0 0 0 0 0 0 0 0 0 0 0 0 0 0 0 0 0 0 0 0 0
0 0 0 0 0 0 0 0 0 0 0 0 0 0 0 0 0 0 0 0 0 0 0 0 0 0 0 0 0 0 0 0 0 0 0 0 0 0 0 0 0 0 0 0
0 0 0 0 0 0 0 0 0 0 0 0 0 0 0 0 0 0 0 0 0 0 0 0 0 0 0 0 0 0 0 0 0 0 0 0 0 0 0 0 0 0 0 0
0 0 0 0 0 0 0 0 0 0 0 0 0 0 0 0 0 0 0 0 0 0 0 0 0 0 0 0 0 0 0 0 0 0 0 0 0 0 0 0 0 0 0 0
0 0 0 0 0 0 0 0 0 0 0 0 0 0 0 0 0 0 0 0 0 0 0 0 0 0 0 0 0 0 0 0 0 0 0 0 0 0 0 0 0 0 0 0
0 0 0 0 0 0 0 0 0 0 0 0 0 0 0 0 0 0 0 0 0 0 0 0 0 0 0 0 0 0 0 0 0 0 0 0 0 0 0 0 0 0 0 0
0 0 0 0 0 0 0 0 0 0 0 0 0 0 0 0 0 0 0 0 0 0 0 0 0 0 0 0 0 0 0 0 0 0 0 0 0 0 0 0 0 0 0 0
0 0 0 0 0 0 1 0 0 0 0 0 0 0 0 0 0 0 0 0 0 0 0 0 0 0 0 0 0 0 0 0 0 0 0 0 0 0 0 0 0 0 0 0
0 1 1 0 0 0 0 0 0 0 0 0 0 0 0 0 0 0 0 0 0 0 0 0 0 0 0 0 0 0 0 0 0 0 0 0 0 0 0 0 0 0 0 0
0 1 0 0 0 0 0 0 0 0 0 0 0 0 0 0 0 0 0 0 0 0 0 0 0 0 0 0 0 0 0 0 0 0 0 0 0 0 0 0 0 0 0 0
0 1 0 0 0 0 0 0 0 0 0 0 0 0 0 0 0 0 0 0 0 0 0 0 0 0 0 0 0 0 0 0 0 0 0 0 0 0 0 0 0 0 0 0
0 0 0 0 0 0 0 0 0 0 0 0 0 0 0 0 0 0 0 0 0 0 0 0 0 0 0 0 0 0 0 0 0 0 0 0 0 0 0 0 0 0 0 0
0 0 0 1 0 0 0 0 0 0 0 0 0 0 0 0 0 0 0 0 0 0 0 0 0 0 0 0 0 0 0 0 0 0 0 0 0 0 0 0 0 0 0 0
0 0 0 0 0 0 0 0 0 0 0 0 0 0 0 0 0 0 0 0 0 0 0 0 0 0 0 0 0 0 0 0 0 0 0 0 0 0 0 0 0 0 0 0
0 0 0 0 0 0 0 0 0 0 0 0 0 0 0 0 0 0 0 0 0 0 0 0 0 0 0 0 0 0 0 0 0 0 0 0 0 0 0 0 0 0 0 0
0 0 0 0 0 0 0 0 0 0 0 0 0 0 0 0 0 0 0 0 0 0 0 0 0 0 0 0 0 0 0 0 0 0 0 0 0 0 0 0 0 0 0 0
0 0 0 0 0 0 0 0 0 0 0 0 0 0 0 0 0 0 0 0 0 0 0 0 0 0 0 0 0 0 0 0 0 0 0 0 0 0 0 0 0 0 0 0
CIN
0 0 0 0 0 0 0 0 0 0 0 0 0 0 0 0 0 0 0 0 0 0 0 0 0 0 0 0 0 0 0 0 0 0 0 0 0 0 0 0 0 0 0 0
0 0 0 0 0 0 0 0 0 0 0 0 0 0 0 0 0 0 0 0 0 0 0 0 0 0 0 0 0 0 0 0 0 0 0 0 0 0 0 0 0 0 0 0
0 0 0 0 0 0 0 0 0 0 0 0 0 0 0 0 0 0 0 0 0 0 0 0 0 0 0 0 0 0 0 0 0 0 0 0 0 0 0 0 0 0 0 0
0 0 0 0 0 0 0 0 0 0 0 0 0 0 0 0 0 0 0 0 0 0 0 0 0 0 0 0 0 0 0 0 0 0 0 0 0 0 0 0 0 0 0 0
0 0 0 0 0 0 0 0 0 0 0 0 0 0 0 0 0 0 0 0 0 0 0 0 0 0 0 0 0 0 0 0 0 0 0 0 0 0 0 0 0 0 0 0
0 0 0 0 0 0 0 0 0 0 0 0 0 0 0 0 0 0 0 0 0 0 0 0 0 0 0 0 0 0 0 0 0 0 0 0 0 0 0 0 0 0 0 0
0 0 0 0 0 0 0 0 0 0 0 0 0 0 0 0 0 0 0 0 0 0 0 0 0 0 0 0 0 0 0 0 0 0 0 0 0 0 0 0 0 0 0 0
0 0 0 0 0 0 0 0 0 0 0 0 0 0 0 0 0 0 0 0 0 0 0 0 0 0 0 0 0 0 0 0 0 0 0 0 0 0 0 0 0 0 0 0
0 0 0 0 0 0 0 0 0 0 0 0 0 0 0 0 0 0 0 0 0 0 0 0 0 0 0 0 0 0 0 0 0 0 0 0 0 0 0 0 0 0 0 0
0 0 0 0 0 0 0 0 0 0 0 0 0 0 0 0 0 0 0 0 0 0 0 0 0 0 0 0 0 0 0 0 0 0 0 0 0 0 0 0 0 0 0 0
0 0 0 0 0 0 0 0 0 0 0 0 0 0 0 0 0 0 0 0 0 0 0 0 0 0 0 0 0 0 0 0 0 0 0 0 0 0 0 0 0 0 0 0
0 0 0 0 0 0 0 0 0 0 0 0 0 0 0 0 0 0 0 0 0 0 0 0 0 0 0 0 0 0 0 0 0 0 0 0 0 0 0 0 0 0 0 0
0 0 0 0 0 0 0 0 0 0 0 0 0 0 0 0 0 0 0 0 0 0 0 0 0 0 0 0 0 0 0 0 0 0 0 0 0 0 0 0 0 0 0 0
0 0 0 0 0 0 0 0 0 0 0 0 0 0 0 0 0 0 0 0 0 0 0 0 0 0 0 0 0 0 0 0 0 0 0 0 0 0 0 0 0 0 0 0
0 0 0 0 0 0 0 0 0 0 0 0 0 0 0 0 0 0 0 0 0 0 0 0 0 0 0 0 0 0 0 0 0 0 0 0 0 0 0 0 0 0 0 0
0 0 0 0 0 0 0 0 0 0 0 0 0 0 0 0 0 0 0 0 0 0 0 0 0 0 0 0 0 0 0 0 0 0 0 0 0 0 0 0 0 0 0 0
0 0 0 0 0 0 0 0 0 0 0 0 0 0 0 0 0 0 0 0 0 0 0 0 0 0 0 0 0 0 0 0 0 0 0 0 0 0 0 0 0 0 0 0
0 0 0 0 0 0 0 0 0 0 0 0 0 0 0 0 0 0 0 0 0 0 0 0 0 0 0 0 0 0 0 0 0 0 0 0 0 0 0 0 0 0 0 0
0 0 0 0 0 0 0 0 0 0 0 0 0 0 0 0 0 0 0 0 0 0 0 0 0 0 0 0 0 0 0 0 0 0 0 0 0 0 0 0 0 0 0 0
0 0 0 0 0 0 0 0 0 0 0 0 0 0 0 0 0 0 0 0 0 0 0 0 0 0 0 0 0 0 0 0 0 0 0 0 0 0 0 0 0 0 0 0
0 0 0 0 0 0 0 0 0 0 0 0 0 0 0 0 0 0 0 0 0 0 0 0 0 0 0 0 0 0 0 0 0 0 0 0 0 0 0 0 0 0 0 0
0 0 0 0 0 0 0 0 0 0 0 0 0 0 0 0 0 0 0 0 0 0 0 0 0 0 0 0 0 0 0 0 0 0 0 0 0 0 0 0 0 0 0 0
0 0 0 0 0 0 0 0 0 0 0 0 0 0 0 0 0 0 0 0 0 0 0 0 0 0 0 0 0 0 0 0 0 0 0 0 0 0 0 0 0 0 0 0
0 0 0 0 0 0 0 0 0 0 0 0 0 0 0 0 0 0 0 0 0 0 0 0 0 0 0 0 0 0 0 0 0 0 0 0 0 0 0 0 0 0 0 0
0 0 0 0 0 0 0 0 0 0 0 0 0 0 0 0 0 0 0 0 0 0 0 0 0 0 0 0 0 0 0 0 0 0 0 0 0 0 0 0 0 0 0 0
0 0 0 0 0 0 0 0 0 0 0 0 0 0 0 0 0 0 0 0 0 0 0 0 0 0 0 0 0 0 0 0 0 0 0 0 0 0 0 0 0 0 0 0
Wind_Speed
21 25 24 18 17 21 23 27 31 28 25 18 17 18 16 13 11 12 11 10 10 12 13 13 14 12 12 10 7 4 2 2 3 3 3 4 4 6 8 9 10 11 12 14
25 30 21 21 20 21 23 28 31 32 23 19 26 22 26 19 14 14 14 14 14 15 14 15 14 12 10 7 4 0 2 3 1 1 2 3 4 6 7 9 10 11 12 13
29 27 21 21 23 23 24 26 28 27 26 26 33 45 29 24 19 19 17 17 16 15 15 15 14 12 9 6 2 2 2 1 1 3 5 5 6 6 6 8 9 11 12 14
33 29 27 24 24 22 28 24 26 27 29 33 24 54 30 24 21 16 15 18 18 16 15 13 13 12 9 5 3 2 2 3 3 5 6 6 5 6 5 7 8 10 12 14
32 28 24 25 25 21 28 23 25 25 27 31 27 38 38 24 18 17 16 15 16 15 15 13 12 12 10 7 6 4 3 3 4 5 6 6 6 7 6 6 7 9 12 14
34 26 25 26 25 19 18 23 25 26 29 35 25 26 38 22 19 19 19 17 14 14 14 13 11 10 10 9 7 6 5 4 6 7 7 8 9 7 5 4 6 8 10 13
34 33 27 22 25 22 20 22 33 35 32 37 27 26 29 24 24 21 19 16 14 13 12 12 12 13 13 11 10 9 8 7 7 8 8 8 7 5 5 3 4 6 9 12
32 39 27 25 26 26 23 23 29 36 37 40 28 31 34 23 18 26 24 15 11 12 11 12 13 13 13 13 12 10 10 9 9 8 8 7 6 4 3 2 4 6 9 11
31 37 25 22 23 20 27 28 24 33 32 41 36 39 39 30 26 24 22 15 12 11 11 12 12 14 14 13 13 12 11 10 9 9 8 7 5 3 1 2 5 7 9 11
27 37 28 24 20 21 22 18 25 25 34 38 35 40 34 30 25 24 20 13 11 10 11 11 13 14 14 14 13 12 11 11 10 8 8 7 6 4 3 3 5 7 9 11
25 28 28 22 25 22 24 25 23 22 26 34 44 37 23 25 23 20 15 11 9 10 12 12 13 14 15 14 14 14 13 12 11 10 9 8 6 5 5 5 6 8 9 11
23 25 34 30 27 27 26 27 24 29 33 33 34 38 20 24 25 23 22 16 11 11 12 13 15 16 17 17 16 16 15 14 13 11 10 9 8 7 7 7 7 8 10 12
20 26 33 34 31 28 30 28 28 30 31 34 34 34 22 25 27 25 23 17 15 14 14 14 17 18 19 18 18 18 17 15 13 13 12 11 10 9 9 9 9 10 11 13
22 29 33 39 33 25 31 30 29 30 38 36 38 39 33 31 29 26 23 18 15 15 15 16 18 20 21 21 21 20 19 16 15 14 14 13 13 12 12 11 11 11 11 13
29 39 37 42 36 31 32 33 31 35 38 36 40 36 33 33 33 32 29 24 21 20 19 19 20 21 22 23 23 22 21 19 17 17 17 16 15 14 13 12 12 11 12 14
33 40 39 50 44 44 46 45 41 39 41 41 42 44 34 34 33 32 28 25 24 24 24 23 23 23 25 26 25 24 23 22 19 19 19 17 16 15 14 14 13 14 15 15
36 38 40 50 42 45 51 47 47 46 44 41 46 44 43 44 41 38 33 28 28 26 25 25 25 25 25 26 25 25 24 22 22 22 21 19 18 17 16 16 16 17 17 17
36 38 39 49 40 52 46 38 35 37 40 39 44 48 45 45 41 40 35 33 30 28 26 25 24 24 24 23 24 23 23 24 24 24 22 21 19 19 18 18 19 19 18 19
36 38 43 45 47 47 44 37 34 34 47 35 37 41 44 42 41 44 35 30 29 27 26 24 22 20 19 21 22 22 24 24 24 25 23 22 21 21 20 22 22 20 20 22
34 36 40 38 45 48 41 32 29 27 51 30 28 34 37 31 40 41 30 26 25 22 19 18 16 17 18 19 19 21 23 23 25 24 23 22 21 21 23 23 22 21 22 23
36 37 43 47 47 42 37 31 26 40 44 31 32 34 32 31 31 31 22 21 17 14 13 12 14 17 18 19 19 21 21 23 21 20 20 20 21 21 21 22 22 23 23 23
43 42 43 42 45 48 27 24 32 30 28 28 29 29 28 27 25 20 18 15 13 12 13 14 18 20 18 16 16 18 20 19 17 17 19 19 20 20 20 22 22 22 23 24
45 40 40 37 38 28 24 27 25 25 28 28 27 25 23 22 22 19 17 15 14 15 14 13 13 12 13 13 15 17 18 15 15 17 19 20 21 21 21 21 22 23 22 24
37 33 36 35 36 32 30 27 24 24 25 25 25 25 23 24 22 21 18 16 15 13 12 10 9 10 11 11 12 14 12 14 16 18 19 19 19 20 20 20 20 21 22 24
33 30 37 40 37 33 32 28 24 21 22 23 23 23 21 19 19 18 16 15 13 11 11 9 8 9 10 10 12 14 14 15 17 19 19 19 19 19 19 20 21 22 24 24
30 32 34 38 29 30 30 27 20 23 23 23 22 20 18 18 16 15 13 12 11 11 12 11 12 12 13 13 15 16 17 17 18 20 20 20 20 20 21 22 24 24 25 25
Wind_Direction
293 288 290 294 293 301 307 304 303 309 315 308 298 300 301 292 288 288 282 265 271 285 295 299 305 311 316 319 325 338 38 71 82 81 72 35 3 18 21 23 28 30 37 40
290 285 293 300 296 295 298 300 301 305 309 303 304 295 301 297 266 268 262 261 272 284 286 290 295 301 305 308 306 346 125 115 43 31 44 28 54 33 40 39 38 42 40 35
283 293 306 289 292 294 294 295 301 301 308 304 303 291 296 296 282 285 272 275 271 267 272 278 282 286 293 285 249 169 148 138 106 103 96 83 73 58 53 49 51 41 40 35
284 283 291 292 288 289 291 298 297 299 301 298 307 282 300 303 301 285 271 269 265 265 273 271 272 271 269 248 230 202 170 155 143 133 132 131 123 110 80 72 58 42 35 31
283 287 281 278 285 286 293 304 300 297 296 299 297 302 302 300 287 290 278 281 266 260 259 259 257 258 253 238 231 231 211 198 168 152 144 135 123 109 92 66 49 32 28 24
280 290 287 286 293 282 293 300 303 303 300 290 290 293 257 295 283 302 304 294 272 259 258 259 247 241 236 236 225 221 213 210 167 158 149 145 139 130 111 71 39 23 18 12
280 276 286 285 285 287 282 291 290 291 291 292 303 289 258 313 313 307 308 297 269 256 248 245 230 219 217 219 218 218 213 205 176 161 157 155 148 136 120 77 30 20 8 4
275 278 269 273 271 278 273 272 281 289 291 296 303 294 304 306 303 307 304 289 265 252 242 228 219 210 210 212 209 208 197 189 179 171 168 167 162 151 123 43 18 2 359 0
279 279 289 284 278 265 279 266 281 287 294 293 294 295 300 303 305 312 309 291 265 243 225 215 213 210 207 205 205 202 197 193 187 181 178 182 182 177 195 355 356 355 356 354
281 282 288 282 277 278 275 285 277 278 287 290 297 300 295 307 305 305 307 292 274 252 238 225 215 211 211 209 213 210 207 200 201 198 200 207 219 241 266 302 322 335 342 346
269 279 286 280 270 262 270 270 282 282 283 291 296 301 316 310 311 310 307 297 267 243 237 225 219 215 209 207 207 208 212 211 210 212 219 221 233 248 267 286 305 321 333 338
259 278 274 272 285 277 271 268 265 276 284 285 290 263 317 316 321 318 309 295 277 254 244 235 225 219 211 208 211 213 215 217 219 220 222 230 237 246 260 279 298 315 324 329
262 273 275 280 282 278 269 269 260 273 287 273 282 276 321 317 315 314 307 297 280 265 256 242 230 225 222 219 217 217 221 225 226 226 230 237 240 246 258 272 288 304 313 319
261 267 265 268 282 281 269 267 266 263 273 277 266 274 282 300 306 309 307 300 281 265 254 243 233 226 227 228 228 227 228 229 231 235 237 239 244 251 259 269 282 294 304 310
259 269 266 269 274 282 282 274 265 259 259 271 274 276 266 288 292 296 296 294 283 273 261 247 240 235 234 233 233 234 232 231 234 238 240 243 248 253 259 267 277 287 295 303
269 271 271 272 273 274 274 277 274 267 268 269 273 278 291 297 297 294 289 282 275 270 264 255 249 246 241 236 234 234 234 236 237 243 244 244 245 250 256 264 272 281 290 296
266 268 272 274 278 277 277 264 269 269 271 271 271 266 289 288 289 290 288 280 274 271 265 257 250 247 244 237 232 234 237 239 240 244 246 247 249 253 258 265 270 279 283 290
265 266 272 277 278 271 277 284 280 272 271 269 273 278 285 286 288 288 284 280 275 270 266 262 258 255 250 242 240 243 245 246 245 245 248 249 250 255 261 264 270 276 280 286
260 268 273 273 272 278 281 281 280 279 281 279 276 281 286 288 290 285 287 280 276 272 267 262 259 255 246 246 246 246 250 249 246 249 249 249 251 257 261 267 273 274 280 287
269 265 266 274 274 274 283 287 289 290 282 291 286 287 291 292 286 289 290 284 279 274 268 261 254 253 252 253 251 256 255 247 247 247 252 253 253 260 266 269 270 276 281 286
271 270 266 269 274 280 283 288 292 281 289 298 297 295 295 290 291 300 296 292 285 275 264 256 256 262 261 259 259 257 255 254 253 257 255 257 260 263 266 271 275 277 281 287
268 271 271 272 274 277 285 288 282 294 302 303 303 303 300 301 303 301 299 294 285 276 274 271 273 274 269 259 252 257 258 264 262 260 263 265 267 270 272 274 278 280 283 287
268 268 273 271 278 288 288 290 293 301 300 302 304 308 307 306 304 304 303 300 295 290 286 284 280 277 275 263 263 268 273 272 269 271 273 275 277 277 277 276 279 282 284 288
271 274 273 275 277 282 286 290 295 297 299 304 305 304 303 302 303 302 302 302 301 300 295 293 286 281 277 278 278 282 281 281 281 281 281 282 280 280 280 282 282 283 285 289
276 276 275 278 284 289 286 286 290 296 303 306 309 309 307 305 304 304 304 304 303 303 302 296 289 282 281 283 287 294 294 290 287 287 287 286 285 283 283 285 285 287 291 292
275 276 275 279 287 288 293 295 283 291 295 304 307 309 313 312 311 311 309 308 304 301 300 296 294 293 294 296 297 299 298 295 292 290 289 288 287 287 287 288 292 296 298 297